| time (UTC) | temp F | wind direction | speed knots | gust knots | rain 1hr in | rain 24hr in | rain mn in | humidity % | barometer mb |
| 20260505041527 | 47 | 284 | 1.7 | 5.2 | 0.00 | 0.00 | 0.00 | 45 | 1004.5 |
| 20260505040025 | 47 | 314 | 1.7 | 3.5 | 0.00 | 0.00 | 0.00 | 45 | 1004.4 |
| 20260505034520 | 47 | 318 | 2.6 | 7.0 | 0.00 | 0.00 | 0.00 | 43 | 1004.4 |
| 20260505033018 | 48 | 327 | 4.3 | 10.4 | 0.00 | 0.00 | 0.00 | 42 | 1004.4 |
| 20260505031516 | 48 | 5 | 4.3 | 9.6 | 0.00 | 0.00 | 0.00 | 43 | 1004.4 |
| 20260505030011 | 49 | 21 | 7.8 | 14.8 | 0.00 | 0.00 | 0.00 | 42 | 1004.2 |
| 20260505024510 | 49 | 355 | 8.7 | 14.8 | 0.00 | 0.00 | 0.00 | 43 | 1003.9 |
| 20260505023003 | 50 | 52 | 8.7 | 15.6 | 0.00 | 0.00 | 0.00 | 41 | 1003.4 |
| 20260505021558 | 51 | 5 | 7.8 | 13.9 | 0.00 | 0.00 | 0.00 | 41 | 1003.0 |
| 20260505020103 | 51 | 325 | 2.6 | 12.2 | 0.00 | 0.00 | 0.00 | 40 | 1002.6 |
| 20260505014554 | 52 | 338 | 3.5 | 7.8 | 0.00 | 0.00 | 0.00 | 40 | 1002.3 |
| 20260505013100 | 52 | 322 | 6.1 | 11.3 | 0.00 | 0.00 | 0.00 | 39 | 1002.1 |
| 20260505011548 | 53 | 344 | 7.8 | 14.8 | 0.00 | 0.00 | 0.00 | 38 | 1001.7 |
| 20260505010048 | 54 | 332 | 6.1 | 12.2 | 0.00 | 0.00 | 0.00 | 39 | 1001.5 |
| 20260505004538 | 54 | 327 | 5.2 | 13.9 | 0.00 | 0.00 | 0.00 | 39 | 1001.3 |
| 20260505003035 | 55 | 330 | 9.6 | 19.1 | 0.00 | 0.00 | 0.00 | 40 | 1001.1 |
| 20260505001533 | 56 | 305 | 10.4 | 18.2 | 0.00 | 0.00 | 0.00 | 38 | 1000.7 |
| 20260505000026 | 57 | 293 | 3.5 | 16.5 | 0.00 | 0.00 | 0.00 | 38 | 1000.5 |
| 20260504234524 | 57 | 355 | 7.8 | 20.9 | 0.00 | 0.00 | 0.00 | 38 | 1000.2 |
| 20260504233020 | 58 | 311 | 7.0 | 18.2 | 0.00 | 0.00 | 0.00 | 36 | 1000.1 |
| 20260504231516 | 59 | 59 | 9.6 | 20.9 | 0.00 | 0.00 | 0.00 | 34 | 999.7 |
| 20260504230053 | 60 | 355 | 7.8 | 17.4 | 0.00 | 0.00 | 0.00 | 36 | 999.5 |
| 20260504224541 | 61 | 360 | 10.4 | 19.1 | 0.00 | 0.00 | 0.00 | 33 | 999.2 |
| 20260504223008 | 62 | 342 | 7.0 | 15.6 | 0.00 | 0.00 | 0.00 | 32 | 999.0 |
| 20260504221505 | 63 | 342 | 7.0 | 16.5 | 0.00 | 0.00 | 0.00 | 31 | 998.6 |
| 20260504220035 | 63 | 284 | 7.8 | 17.4 | 0.00 | 0.00 | 0.00 | 32 | 998.3 |
| 20260504214533 | 64 | 284 | 9.6 | 14.8 | 0.00 | 0.00 | 0.00 | 32 | 998.2 |
| 20260504213030 | 63 | 302 | 8.7 | 14.8 | 0.00 | 0.00 | 0.00 | 31 | 998.1 |
| 20260504211529 | 64 | 329 | 7.8 | 14.8 | 0.00 | 0.00 | 0.00 | 33 | 997.9 |
| 20260504210034 | 63 | 333 | 7.0 | 13.0 | 0.00 | 0.00 | 0.00 | 34 | 998.0 |
| 20260504204527 | 63 | 315 | 6.1 | 14.8 | 0.00 | 0.00 | 0.00 | 29 | 997.9 |
| 20260504203034 | 62 | 329 | 7.0 | 18.2 | 0.00 | 0.00 | 0.00 | 28 | 997.8 |
| 20260504201522 | 63 | 334 | 9.6 | 16.5 | 0.00 | 0.00 | 0.00 | 27 | 997.9 |
| 20260504200019 | 64 | 324 | 8.7 | 19.1 | 0.00 | 0.00 | 0.00 | 26 | 997.7 |
| 20260504194517 | 65 | 245 | 6.1 | 19.1 | 0.00 | 0.00 | 0.00 | 28 | 997.5 |
| 20260504193017 | 66 | 279 | 7.8 | 18.2 | 0.00 | 0.00 | 0.00 | 26 | 997.4 |
| 20260504191521 | 68 | 292 | 7.8 | 17.4 | 0.00 | 0.00 | 0.00 | 27 | 997.0 |
| 20260504190009 | 67 | 289 | 5.2 | 20.0 | 0.00 | 0.00 | 0.00 | 26 | 996.8 |
| 20260504184507 | 66 | 342 | 7.0 | 15.6 | 0.00 | 0.00 | 0.00 | 27 | 996.6 |
| 20260504183004 | 66 | 11 | 7.8 | 18.2 | 0.00 | 0.00 | 0.00 | 29 | 996.5 |
| 20260504181504 | 66 | 36 | 7.0 | 17.4 | 0.00 | 0.00 | 0.00 | 27 | 996.5 |
| 20260504180006 | 67 | 324 | 7.0 | 13.0 | 0.00 | 0.00 | 0.00 | 27 | 996.3 |
| 20260504174502 | 66 | 260 | 6.1 | 13.9 | 0.00 | 0.00 | 0.00 | 28 | 996.0 |
| 20260504173101 | 68 | 35 | 5.2 | 11.3 | 0.00 | 0.00 | 0.00 | 30 | 996.2 |
| 20260504171556 | 65 | 248 | 3.5 | 13.9 | 0.00 | 0.00 | 0.00 | 34 | 996.2 |
| 20260504081513 | 53 | 257 | 5.2 | 10.4 | 0.00 | 0.00 | 0.00 | 51 | 997.5 |